Tracking 31033 objects as of 14-Jul-2025
HD Live streaming from Space Station
objects crossing your sky now

STARLINK-5290

Track STARLINK-5290 now!
10-day predictions
STARLINK-5290 is classified as:


NORAD ID: 54157
Int'l Code: 2022-141A
Perigee: 545.9 km
Apogee: 547.8 km
Inclination: 53.2 °
Period: 95.4 minutes
Semi major axis: 6917 km
RCS: Unknown
Launch date: October 28, 2022
Source: United States (US)
Launch site: AIR FORCE WESTERN TEST RANGE (AFWTR)
Your satellite tracking list
Your tracking list is empty




NASA's NSSDC Master Catalog

Two Line Element Set (TLE):
1 54157U 22141A   25195.46160036 -.00000110  00000-0  11184-4 0  9992
2 54157  53.2175   3.5165 0001352  86.8788 273.2358 15.08840450149754
Source of the keplerian elements: AFSPC